EW5627 Weather Reports


time (UTC)temp
F
wind
direction
speed
knots
gust
knots
rain 1hr
in
rain 24hr
in
rain mn
in
humidity
%
barometer
mb
20260507031558 56 297 0.0 0.0 0.00 0.19 0.19 90 1007.2
20260507030101 56 297 0.0 0.0 0.00 0.19 0.19 90 1007.4
20260507024553 56 296 0.0 0.0 0.00 0.19 0.19 90 1007.4
20260507023109 57 292 0.0 0.0 0.01 0.19 0.19 90 1007.3
20260507021554 58 201 0.0 0.0 0.01 0.19 0.19 90 1007.3
20260507014602 60 267 0.0 0.0 0.01 0.19 0.19 92 1007.2
20260507013109 60 176 0.0 0.0 0.00 0.18 0.18 93 1006.9
20260507011549 60 175 0.0 0.0 0.00 0.18 0.18 93 1006.8
20260507010048 60 159 0.0 0.0 0.00 0.18 0.18 93 1006.7
20260507004549 60 188 0.0 0.0 0.00 0.18 0.18 93 1006.5
20260507003046 60 207 0.0 0.0 0.00 0.18 0.18 93 1006.4
20260507001606 60 200 0.0 0.0 0.00 0.18 0.18 93 1006.5
20260507000047 60 223 0.0 0.0 0.00 0.18 0.18 93 1006.2
20260506234544 60 192 0.0 0.0 0.00 0.18 0.18 93 1006.0
20260506233047 60 333 0.0 4.3 0.00 0.18 0.18 93 1006.1
20260506231547 60 248 0.0 0.0 0.00 0.18 0.18 93 1006.3
20260506230042 60 229 0.0 0.0 0.00 0.18 0.18 93 1006.1
20260506224542 60 210 0.0 0.0 0.00 0.18 0.18 93 1006.0
20260506223058 60 113 0.0 0.0 0.00 0.18 0.18 93 1005.8
20260506221540 60 223 0.0 0.9 0.00 0.18 0.18 93 1005.8
20260506220039 60 5 0.0 0.0 0.00 0.18 0.18 93 1005.7
20260506214541 60 196 0.0 0.9 0.00 0.18 0.18 93 1005.5
20260506213038 60 229 0.0 0.0 0.00 0.18 0.18 93 1005.4
20260506211537 60 232 0.0 0.0 0.01 0.18 0.18 93 1005.5
20260506210039 60 191 0.0 0.0 0.04 0.18 0.18 93 1005.2
20260506204535 59 215 0.0 7.0 0.05 0.18 0.18 93 1005.1
20260506203041 59 201 0.0 0.0 0.08 0.18 0.18 92 1005.4
20260506201531 59 186 0.0 0.0 0.11 0.17 0.17 92 1005.5
20260506200032 59 212 0.0 0.0 0.09 0.14 0.14 92 1005.6
20260506194528 59 205 0.0 0.0 0.08 0.13 0.13 91 1005.9
20260506193026 59 163 0.0 0.0 0.05 0.10 0.10 91 1006.0
20260506191524 59 217 0.0 0.9 0.01 0.06 0.06 90 1006.2
20260506190024 60 150 0.0 0.0 0.00 0.05 0.05 90 1006.1
20260506184522 60 206 0.0 0.9 0.01 0.05 0.05 90 1006.3
20260506183023 60 142 0.0 0.9 0.02 0.05 0.05 90 1006.4
20260506181522 60 226 0.0 0.9 0.03 0.05 0.05 90 1006.6
20260506180031 60 230 0.0 1.7 0.03 0.05 0.05 90 1006.8
20260506174517 60 229 0.0 0.9 0.03 0.04 0.04 89 1006.7
20260506173017 60 203 0.0 4.3 0.03 0.03 0.03 88 1006.7
20260506171531 61 190 0.0 0.0 0.02 0.02 0.02 87 1006.8
20260506170014 61 226 0.0 0.0 0.02 0.02 0.02 86 1006.9
20260506164512 62 140 0.0 0.0 0.01 0.01 0.01 84 1007.1
20260506163018 63 186 0.0 0.0 0.00 0.00 0.00 81 1007.8
20260506161518 64 167 0.0 0.9 0.00 0.00 0.00 79 1007.9
20260506160009 64 178 0.0 0.9 0.00 0.00 0.00 79 1007.7
20260506154506 64 185 0.0 0.0 0.00 0.00 0.00 77 1007.8
20260506153004 65 201 0.0 0.0 0.00 0.00 0.00 75 1008.1
20260506151503 66 232 0.0 0.9 0.00 0.00 0.00 75 1008.1
20260506150005 66 149 0.0 0.0 0.00 0.00 0.00 75 1008.2
20260506144500 65 215 0.0 0.0 0.00 0.00 0.00 76 1008.0
20260506143100 65 205 0.0 0.9 0.00 0.00 0.00 77 1008.1
20260506141557 64 188 0.0 0.0 0.00 0.00 0.00 78 1008.1
20260506140056 64 194 0.0 0.0 0.00 0.00 0.00 79 1008.3
20260506134617 64 229 0.0 0.0 0.00 0.00 0.00 79 1008.0
20260506133052 63 215 0.0 0.0 0.00 0.00 0.00 80 1008.3
20260506131606 63 165 0.0 0.0 0.00 0.00 0.00 81 1008.3
20260506130049 62 198 0.0 0.0 0.00 0.00 0.00 82 1008.0
20260506124547 61 190 0.0 2.6 0.00 0.00 0.00 83 1008.0
20260506123047 61 171 0.0 0.0 0.00 0.00 0.00 84 1008.1
20260506121544 60 192 0.0 0.9 0.00 0.00 0.00 85 1008.3
20260506120043 59 168 0.0 6.1 0.00 0.00 0.00 87 1008.6
20260506114547 58 255 0.0 0.9 0.00 0.00 0.00 89 1008.5
20260506113041 57 207 0.0 0.0 0.00 0.00 0.00 88 1008.5
20260506111538 57 169 0.0 4.3 0.00 0.00 0.00 89 1008.3
20260506110037 56 181 0.0 4.3 0.00 0.00 0.00 90 1008.6
20260506104534 56 207 0.0 3.5 0.00 0.00 0.00 90 1008.4
20260506103033 56 202 0.0 2.6 0.00 0.00 0.00 90 1008.4
20260506101529 55 172 0.0 0.0 0.00 0.00 0.00 90 1008.2
20260506100033 55 151 0.0 1.7 0.00 0.00 0.00 90 1008.3
20260506094525 56 209 0.0 2.6 0.00 0.00 0.00 89 1008.3
20260506093024 56 173 0.0 0.0 0.00 0.00 0.00 89 1008.2
20260506091523 56 212 0.0 0.0 0.00 0.00 0.00 89 1008.2
20260506090021 56 207 0.0 0.9 0.00 0.00 0.00 89 1008.4
20260506084521 56 198 0.0 0.9 0.00 0.00 0.00 89 1008.5
20260506083018 56 227 0.0 0.9 0.00 0.00 0.00 88 1008.4
20260506081522 56 237 0.0 1.7 0.00 0.00 0.00 88 1008.6
20260506073014 56 200 0.0 0.9 0.00 0.00 0.00 86 1008.5
20260506071513 56 184 0.0 0.0 0.00 0.00 0.00 85 1008.9
20260506061505 58 180 0.0 0.0 0.00 0.00 0.00 82 1008.8
20260506044548 62 170 0.0 0.0 0.00 0.00 0.00 72 1009.3
20260506043046 62 212 0.0 0.0 0.00 0.00 0.00 71 1009.4
20260506041544 62 178 0.0 0.0 0.00 0.00 0.00 71 1009.2
20260506040043 63 217 0.0 0.0 0.00 0.00 0.00 70 1009.1
20260506034541 63 204 0.0 0.0 0.00 0.00 0.00 70 1009.2
20260506033040 63 196 0.0 0.0 0.00 0.00 0.00 69 1009.3